Home   Weather   Wagga Wagga   Past weeks

Flag for Australia Past Weather in Wagga Wagga, New South Wales, Australia — Yesterday and Last 2 Weeks

Now
57 °F

Scattered showers. Broken clouds.


Feels Like: 55 °F
Forecast: 51 / 64 °F
Wind: 9 mph from North

Location: Wagga Airport

Current Time: Aug 31, 2016 at 8:46:21 AM

Latest Report: Aug 31, 2016 at 8:00 AM


Visibility: 6 mi

Pressure: 30.01 "Hg

Humidity: 94%

Dew Point: 55 °F

Location of Wagga WaggaLocation

Past Weather in Wagga Wagga — Graph

°F

Wagga Wagga Temperature Yesterday

Maximum temperature yesterday: 66 °F (at 1:00 PM)
Minimum temperature yesterday: 48 °F (at 2:00 AM)
Average temperature yesterday: 57 °F

High & Low Weather Summary for the Past Weeks

 TemperatureHumidityPressure
High68 °F (Aug 18, 3:00 PM)100% (Aug 18, 6:00 AM)30.42 "Hg (Aug 18, 6:00 AM)
Low30 °F (Aug 26, 5:00 AM)45% (Aug 28, 2:00 PM)29.80 "Hg (Aug 19, 2:00 PM)
Average49 °F79%30.08 "Hg
* Reported Aug 16 7:00 AM — Aug 31 7:00 AM, Wagga Wagga, Weather by CustomWeather, © 2016

Note: Actual official high and low records may vary slightly from our data, if they occured in-between our weather recording intervals... More about our weather records

Advertising

Wagga Wagga Weather History for the Previous 24 Hours

Scroll right to see more
 ConditionsComfort  
Time TempWeatherWind HumidityBarometerVisibility
7:00 AM
Wed, Aug 31
57 °FCloudy.8 mph94%30.01 "HgN/A
6:00 AM57 °FMostly cloudy.12 mph94%29.98 "HgN/A
5:00 AM57 °FPartly cloudy.9 mph94%30.01 "HgN/A
4:00 AM57 °FPartly cloudy.10 mph94%30.01 "HgN/A
3:00 AM59 °FMostly cloudy.10 mph88%30.01 "HgN/A
2:00 AM61 °FMostly cloudy.14 mph83%30.01 "HgN/A
1:00 AM61 °FMostly cloudy.12 mph83%30.04 "HgN/A
12:00 AM59 °FMostly cloudy.8 mph94%30.07 "HgN/A
11:00 PM
Tue, Aug 30
61 °FMostly cloudy.10 mph88%30.07 "HgN/A
10:00 PM61 °FOvercast.9 mph77%30.09 "HgN/A
9:00 PM61 °FOvercast.5 mph77%30.12 "HgN/A
8:00 PM61 °FOvercast.No wind77%30.09 "HgN/A
7:00 PM61 °FOvercast.3 mph77%30.09 "HgN/A
6:00 PM63 °FOvercast.5 mph68%30.09 "HgN/A
5:00 PM64 °FOvercast.5 mph64%30.09 "HgN/A
4:00 PM66 °FSunny.6 mph56%30.09 "Hg10 mi
3:00 PM66 °FSunny.7 mph56%30.09 "Hg10 mi
2:00 PM66 °FSunny.9 mph52%30.12 "Hg10 mi
1:00 PM66 °FSunny.10 mph49%30.15 "Hg10 mi
12:00 PM63 °FSunny.10 mph52%30.18 "Hg10 mi
11:00 AM61 °FSunny.10 mph52%30.21 "HgN/A
10:00 AM57 °FSunny.12 mph59%30.24 "Hg10 mi
9:00 AM55 °FSunny.8 mph63%30.24 "Hg10 mi
8:00 AM52 °FSunny.8 mph67%30.21 "Hg10 mi
Weather by CustomWeather, © 2016

See weather overviewHow to use our weather pages